Flag for U.S.A. Weather past 2 weeks in Unalaska, Alaska, U.S.A.

Now
33 °F

Passing clouds.


Feels Like: 28 °F
Forecast: 29 / 38 °F
Wind: 6 mph from Southwest

Location: Dutch Harbor

Current Time: Apr 21, 2015 at 1:59:13 AM

Latest Report: Apr 21, 2015 at 12:56 AM


Visibility: 10 mi

Pressure: 29.71 "Hg

Humidity: 78%

Dew point: 27 °F

Location of UnalaskaLocation

Historic Weather in Unalaska — Graph

°F

Unalaska temperature yesterday

Maximum temperature yesterday: 38 °F (at 4:56 PM)
Minimum temperature yesterday: 32 °F (at 1:59 AM)
Average temperature yesterday: 36 °F

Past Weeks' High & Low Weather Summary

 TemperatureHumidityPressure
High44 °F (Apr 8, 8:56 AM)93% (Apr 18, 11:58 AM)29.92 "Hg (Apr 18, 11:58 AM)
Low27 °F (Apr 13, 3:56 AM)51% (Apr 7, 6:56 PM)28.95 "Hg (Apr 18, 9:00 AM)
Average35 °F73%29.59 "Hg
* Reported Apr 5 11:56 PM — Apr 20 11:56 PM, Unalaska, Weather by CustomWeather, © 2015

Note: Actual official high and low records may vary slightly from our data, if they occured in-between our weather recording intervals... More about our weather records

Advertising

Unalaska weather history for previous 24 hours

 ConditionsComfort  
Time TempWeatherWind HumidityBarometerVisibility
11:56 PM
Mon, Apr 20
34 °FPassing clouds.No wind73%29.72 "Hg10 mi
10:56 PM35 °FMore clouds than sun.12 mph70%29.71 "Hg10 mi
9:56 PM36 °FPassing clouds.10 mph64%29.70 "Hg10 mi
8:56 PM37 °FSunny.12 mph54%29.69 "Hg10 mi
7:56 PM36 °FPassing clouds.8 mph70%29.70 "Hg10 mi
6:56 PM38 °FScattered clouds.10 mph60%29.70 "Hg10 mi
5:56 PM38 °FScattered clouds.10 mph55%29.70 "Hg10 mi
4:56 PM38 °FScattered clouds.10 mph60%29.72 "Hg10 mi
3:56 PM37 °FPassing clouds.12 mph62%29.72 "Hg10 mi
2:56 PM37 °FScattered clouds.9 mph70%29.73 "Hg10 mi
1:56 PM34 °FPartly sunny.13 mph82%29.74 "Hg10 mi
12:56 PM36 °FScattered clouds.9 mph73%29.74 "Hg10 mi
11:56 AM35 °FBroken clouds.13 mph70%29.75 "Hg10 mi
10:56 AM35 °FLight rain. Broken clouds.9 mph70%29.75 "Hg10 mi
9:56 AM35 °FPartly sunny.10 mph64%29.76 "Hg10 mi
8:56 AM35 °FBroken clouds.12 mph64%29.76 "Hg10 mi
7:56 AM35 °FPartly cloudy.16 mph67%29.76 "Hg10 mi
6:56 AM35 °FMostly cloudy.9 mph70%29.77 "Hg10 mi
5:56 AM35 °FClear.13 mph67%29.78 "Hg10 mi
4:56 AM35 °FLight rain. Mostly cloudy.15 mph70%29.79 "Hg10 mi
3:56 AM35 °FLight rain. Mostly cloudy.16 mph72%29.80 "Hg9 mi
2:56 AM34 °FLight rain. Passing clouds.14 mph76%29.79 "Hg10 mi
1:59 AM32 °FLight snow. Partly cloudy.16 mph87%29.78 "Hg7 mi
Weather by CustomWeather, © 2015

See weather overviewHow to use our weather pages